Time,TemperatureF,DewpointF,PressureIn,WindDirection,WindDirectionDegrees,WindSpeedMPH,WindSpeedGustMPH,Humidity,HourlyPrecipIn,Conditions,Clouds,dailyrainin,SolarRadiationWatts/m^2,SoftwareType,DateUTC
2013-03-27 00:02:00,32.0,22.0,-100.00,East,92,6.0,9.0,66,0.00,,,0.00,0.000000,,2013-03-27 08:02:00,
2013-03-27 00:12:00,32.0,22.0,-100.00,East,92,6.0,9.0,66,0.00,,,0.00,0.000000,,2013-03-27 08:12:00,
2013-03-27 00:21:00,32.0,22.0,-100.00,East,92,6.0,9.0,66,0.00,,,0.00,0.000000,,2013-03-27 08:21:00,
2013-03-27 00:43:00,32.0,22.0,-100.00,East,79,5.0,10.0,65,0.00,,,0.00,0.000000,,2013-03-27 08:43:00,
2013-03-27 00:52:00,32.0,22.0,-100.00,East,79,5.0,10.0,65,0.00,,,0.00,0.000000,,2013-03-27 08:52:00,
2013-03-27 01:01:00,32.0,22.0,-100.00,East,79,5.0,10.0,65,0.00,,,0.00,0.000000,,2013-03-27 09:01:00,
2013-03-27 01:11:00,32.0,22.0,-100.00,East,79,5.0,10.0,65,0.00,,,0.00,0.000000,,2013-03-27 09:11:00,
2013-03-27 01:21:00,32.0,22.0,-100.00,East,79,5.0,10.0,65,0.00,,,0.00,0.000000,,2013-03-27 09:21:00,
2013-03-27 01:42:00,30.0,19.0,-100.00,East,85,6.0,10.0,62,0.00,,,0.00,0.000000,,2013-03-27 09:42:00,
2013-03-27 01:52:00,30.0,19.0,-100.00,East,85,6.0,10.0,62,0.00,,,0.00,0.000000,,2013-03-27 09:52:00,
2013-03-27 02:02:00,30.0,19.0,-100.00,East,85,6.0,10.0,62,0.00,,,0.00,0.000000,,2013-03-27 10:02:00,
2013-03-27 02:12:00,30.0,19.0,-100.00,East,85,6.0,10.0,62,0.00,,,0.00,0.000000,,2013-03-27 10:12:00,
2013-03-27 02:22:00,30.0,19.0,-100.00,East,85,6.0,10.0,62,0.00,,,0.00,0.000000,,2013-03-27 10:22:00,
2013-03-27 02:42:00,30.0,19.0,-100.00,East,89,5.0,9.0,63,0.00,,,0.00,0.000000,,2013-03-27 10:42:00,
2013-03-27 02:53:00,30.0,19.0,-100.00,East,89,5.0,9.0,63,0.00,,,0.00,0.000000,,2013-03-27 10:53:00,
2013-03-27 03:02:00,30.0,19.0,-100.00,East,89,5.0,9.0,63,0.00,,,0.00,0.000000,,2013-03-27 11:02:00,
2013-03-27 03:11:00,30.0,19.0,-100.00,East,89,5.0,9.0,63,0.00,,,0.00,0.000000,,2013-03-27 11:11:00,
2013-03-27 03:22:00,30.0,19.0,-100.00,East,89,5.0,9.0,63,0.00,,,0.00,0.000000,,2013-03-27 11:22:00,
2013-03-27 03:42:00,30.0,18.0,-100.00,East,83,6.0,8.0,59,0.00,,,0.00,0.000000,,2013-03-27 11:42:00,
2013-03-27 03:52:00,30.0,18.0,-100.00,East,83,6.0,8.0,59,0.00,,,0.00,0.000000,,2013-03-27 11:52:00,
2013-03-27 04:02:00,30.0,18.0,-100.00,East,83,6.0,8.0,59,0.00,,,0.00,0.000000,,2013-03-27 12:02:00,
2013-03-27 04:12:00,30.0,18.0,-100.00,East,83,6.0,8.0,59,0.00,,,0.00,0.000000,,2013-03-27 12:12:00,
2013-03-27 04:22:00,30.0,18.0,-100.00,East,83,6.0,8.0,59,0.00,,,0.00,0.000000,,2013-03-27 12:22:00,
2013-03-27 04:43:00,30.0,18.0,-100.00,ENE,74,5.0,8.0,59,0.00,,,-99.99,0.000000,,2013-03-27 12:43:00,
2013-03-27 04:52:00,30.0,18.0,-100.00,ENE,74,5.0,8.0,59,0.00,,,-99.99,0.000000,,2013-03-27 12:52:00,
2013-03-27 05:02:00,30.0,18.0,-100.00,ENE,74,5.0,8.0,59,0.00,,,-99.99,0.000000,,2013-03-27 13:02:00,
2013-03-27 05:12:00,30.0,18.0,-100.00,ENE,74,5.0,8.0,59,0.00,,,-99.99,0.000000,,2013-03-27 13:12:00,
2013-03-27 05:21:00,30.0,18.0,-100.00,ENE,74,5.0,8.0,59,0.00,,,-99.99,0.000000,,2013-03-27 13:21:00,
2013-03-27 05:42:00,30.0,19.0,-100.00,East,79,5.0,8.0,63,0.00,,,0.00,0.000000,,2013-03-27 13:42:00,
2013-03-27 05:53:00,30.0,19.0,-100.00,East,79,5.0,8.0,63,0.00,,,0.00,0.000000,,2013-03-27 13:53:00,
2013-03-27 06:21:00,30.0,19.0,-100.00,East,79,5.0,8.0,63,0.00,,,0.00,0.000000,,2013-03-27 14:21:00,
2013-03-27 06:42:00,30.0,20.0,-100.00,East,89,5.0,9.0,65,0.00,,,0.00,0.000000,,2013-03-27 14:42:00,
2013-03-27 06:52:00,30.0,20.0,-100.00,East,89,5.0,9.0,65,0.00,,,0.00,0.000000,,2013-03-27 14:52:00,
2013-03-27 07:43:00,30.0,19.0,-100.00,East,86,4.0,8.0,63,0.00,,,0.00,3.000000,,2013-03-27 15:43:00,
2013-03-27 07:52:00,30.0,19.0,-100.00,East,86,4.0,8.0,63,0.00,,,0.00,3.000000,,2013-03-27 15:52:00,
2013-03-27 08:02:00,30.0,19.0,-100.00,East,86,4.0,8.0,63,0.00,,,0.00,3.000000,,2013-03-27 16:02:00,
2013-03-27 10:02:00,30.0,19.0,-100.00,East,83,4.0,7.0,62,-99.99,,,0.00,86.000000,,2013-03-27 18:02:00,
2013-03-27 10:12:00,30.0,19.0,-100.00,East,83,4.0,7.0,62,-99.99,,,0.00,86.000000,,2013-03-27 18:12:00,
2013-03-27 10:22:00,30.0,19.0,-100.00,East,83,4.0,7.0,62,-99.99,,,0.00,86.000000,,2013-03-27 18:22:00,
2013-03-27 10:42:00,32.0,19.0,-100.00,East,82,5.0,8.0,59,0.00,,,0.00,176.000000,,2013-03-27 18:42:00,
2013-03-27 10:53:00,32.0,19.0,-100.00,East,82,5.0,8.0,59,0.00,,,0.00,176.000000,,2013-03-27 18:53:00,
2013-03-27 11:12:00,32.0,19.0,-100.00,East,82,5.0,8.0,59,0.00,,,0.00,176.000000,,2013-03-27 19:12:00,
2013-03-27 11:21:00,32.0,19.0,-100.00,East,82,5.0,8.0,59,0.00,,,0.00,176.000000,,2013-03-27 19:21:00,
2013-03-27 11:52:00,32.0,16.0,-100.00,ESE,105,5.0,8.0,52,0.00,,,0.00,307.000000,,2013-03-27 19:52:00,
2013-03-27 12:02:00,32.0,16.0,-100.00,ESE,105,5.0,8.0,52,0.00,,,0.00,307.000000,,2013-03-27 20:02:00,
2013-03-27 12:12:00,32.0,16.0,-100.00,ESE,105,5.0,8.0,52,0.00,,,0.00,307.000000,,2013-03-27 20:12:00,
2013-03-27 12:22:00,32.0,16.0,-100.00,ESE,105,5.0,8.0,52,0.00,,,0.00,307.000000,,2013-03-27 20:22:00,
2013-03-27 12:43:00,32.0,15.0,-100.00,East,83,4.0,8.0,50,0.00,,,0.00,351.000000,,2013-03-27 20:43:00,
2013-03-27 12:52:00,32.0,15.0,-100.00,East,83,4.0,8.0,50,0.00,,,0.00,351.000000,,2013-03-27 20:52:00,
2013-03-27 13:02:00,32.0,15.0,-100.00,East,83,4.0,8.0,50,0.00,,,0.00,351.000000,,2013-03-27 21:02:00,
2013-03-27 13:12:00,32.0,15.0,-100.00,East,83,4.0,8.0,50,0.00,,,0.00,351.000000,,2013-03-27 21:12:00,
2013-03-27 13:21:00,32.0,15.0,-100.00,East,83,4.0,8.0,50,0.00,,,0.00,351.000000,,2013-03-27 21:21:00,
2013-03-27 13:43:00,34.0,16.0,-100.00,East,91,5.0,8.0,48,0.00,,,0.00,412.000000,,2013-03-27 21:43:00,
2013-03-27 13:52:00,34.0,16.0,-100.00,East,91,5.0,8.0,48,0.00,,,0.00,412.000000,,2013-03-27 21:52:00,
2013-03-27 14:02:00,34.0,16.0,-100.00,East,91,5.0,8.0,48,0.00,,,0.00,412.000000,,2013-03-27 22:02:00,
2013-03-27 14:12:00,34.0,16.0,-100.00,East,91,5.0,8.0,48,0.00,,,0.00,412.000000,,2013-03-27 22:12:00,
2013-03-27 14:22:00,34.0,16.0,-100.00,East,91,5.0,8.0,48,0.00,,,0.00,412.000000,,2013-03-27 22:22:00,
2013-03-27 14:42:00,36.0,16.0,-100.00,East,91,5.0,8.0,44,0.00,,,0.00,493.000000,,2013-03-27 22:42:00,
2013-03-27 14:52:00,36.0,16.0,-100.00,East,91,5.0,8.0,44,0.00,,,0.00,493.000000,,2013-03-27 22:52:00,
2013-03-27 15:02:00,36.0,16.0,-100.00,East,91,5.0,8.0,44,0.00,,,0.00,493.000000,,2013-03-27 23:02:00,
2013-03-27 15:11:00,36.0,16.0,-100.00,East,91,5.0,8.0,44,0.00,,,0.00,493.000000,,2013-03-27 23:11:00,
2013-03-27 15:21:00,36.0,16.0,-100.00,East,91,5.0,8.0,44,0.00,,,0.00,493.000000,,2013-03-27 23:21:00,
2013-03-27 15:42:00,36.0,15.0,-100.00,East,82,5.0,8.0,42,0.00,,,0.00,632.000000,,2013-03-27 23:42:00,
2013-03-27 15:52:00,36.0,15.0,-100.00,East,82,5.0,8.0,42,0.00,,,0.00,632.000000,,2013-03-27 23:52:00,
2013-03-27 16:02:00,36.0,15.0,-100.00,East,82,5.0,8.0,42,0.00,,,0.00,632.000000,,2013-03-28 00:02:00,
2013-03-27 16:12:00,36.0,15.0,-100.00,East,82,5.0,8.0,42,0.00,,,0.00,632.000000,,2013-03-28 00:12:00,
2013-03-27 16:21:00,36.0,15.0,-100.00,East,82,5.0,8.0,42,0.00,,,0.00,632.000000,,2013-03-28 00:21:00,